Tracking 31027 objects as of 19-Jul-2025
HD Live streaming from Space Station
objects crossing your sky now

BREEZE-M DEB

Track BREEZE-M DEB now!
10-day predictions


NORAD ID: 37200
Int'l Code: 2008-011E
Perigee: 1,353.3 km
Apogee: 26,328.9 km
Inclination: 48.9 °
Period: 476.6 minutes
Semi major axis: 20212 km
RCS: 1.4407 m2 (large)
Launch date: March 14, 2008
Source: Commonwealth of Independent States (former USSR) (CIS)
Launch site: TYURATAM MISSILE AND SPACE COMPLEX (TTMTR)

Note: This is SATELLITE DEBRIS
Your satellite tracking list
IRIDIUM 134
Track 1 satellite(s)




NASA's NSSDC Master Catalog

Two Line Element Set (TLE):
1 37200U 08011E   25199.56998196 -.00000135  00000-0  00000-0 0  9991
2 37200  48.8806 299.2616 6178397 344.7926   5.7729  3.02124927162884
Source of the keplerian elements: AFSPC